User: anonymous   Login
Location: Unspecified
(0.0000°N, 0.0000°E)
Time: 20:02:44
(UTC+00:00)
Language:

ASTRO H - Orbit

View from above orbital plane
View from above orbital plane
View from above satellite
View from above satellite

Ground track
Ground track

The orbit data is extracted from the following two-line orbital elements,

1 41337U 16012A   18344.16597837  .00000248  00000-0  13239-4 0  9990
2 41337  31.0060 290.1100 0012408 343.8882  16.1357 14.98529952154135
Epoch (UTC): 10 December 2018 03:59:00
Eccentricity: 0.0012408
inclination: 31.0060°
perigee height: 563 km
apogee height: 580 km
right ascension of ascending node: 290.1100°
argument of perigee: 343.8882°
revolutions per day: 14.98529952
mean anomaly at epoch: 16.1357°
orbit number at epoch: 15413

The dashed part of the orbit path shows where the satellite is in the earth's shadow,  

DLR